User: anonymous   Login
Location: Coupvray
(48.8929°N, 2.7967°E)
Time: 12:39:56
(UTC+00:00)
Language:

Cosmos 1818 - Orbit

View from above orbital plane
View from above orbital plane
View from above satellite
View from above satellite

Ground track
Ground track

The orbit data is extracted from the following two-line orbital elements,

1 17369U 87011A   20271.69705054 -.00000088 +00000-0 +45332-5 0  9990
2 17369 065.0124 337.1500 0014789 284.4429 075.5014 14.31458382809892
Epoch (UTC): 27 September 2020 16:43:45
Eccentricity: 0.0014789
inclination: 65.0124°
perigee height: 776 km
apogee height: 797 km
right ascension of ascending node: 337.1500°
argument of perigee: 284.4429°
revolutions per day: 14.31458382
mean anomaly at epoch: 75.5014°
orbit number at epoch: 80989

The dashed part of the orbit path shows where the satellite is in the earth's shadow,  

DLR